Weather History for Fort Leonard Wood, MO

Change the Weather History Date:

Tuesday, December 25, 2012

  Actual Average Record
Temperature  
Mean Temperature 24 °F -  
Max Temperature 30 °F 40 °F 56 °F (2011)
Min Temperature 19 °F 25 °F 5 °F (2000)
Degree Days  
Heating Degree Days 40    
Moisture  
Dew Point 20 °F    
Average Humidity 81    
Maximum Humidity 89    
Minimum Humidity 74    
Precipitation  
Precipitation 0.00 in - - ()
Sea Level Pressure  
Sea Level Pressure 30.10 in    
Wind  
Wind Speed 10 mph (NNE)    
Max Wind Speed 18 mph    
Max Gust Speed 29 mph    
Visibility 10 miles    
Events      
Averages and records for this station are not official NWS values.
T = Trace of Precipitation, MM = Missing Value Source: NWS Daily Summary

Daily Weather History Graph

Daily Weather History Graph

Search for Another Location

Airport:

Trip Planner

Search our weather history database for the weather conditions in past years. The results will help you decide how hot, cold, wet, or windy it might be!

Date:

Astronomy

Dec. 25, 2012 Rise Set
Actual Time 7:22 AM CST 4:55 PM CST
Civil Twilight 6:52 AM CST 5:25 PM CST
Nautical Twilight 6:19 AM CST 5:58 PM CST
Astronomical Twilight 5:47 AM CST 6:30 PM CST
Moon 3:03 PM CST 4:55 AM CST
Length of Visible Light 10h 32m
Length of Day
9h 33m
Waxing Gibbous, 94% of the Moon is Illuminated
Dec 25
Waxing Gibbous
Dec 28
Full
Jan 4
Last Quarter
Jan 11
New
Jan 18
First Quarter

Hourly Weather History & Observations

Time (CST) Temp. Windchill Dew Point Humidity Pressure Visibility Wind Dir Wind Speed Gust Speed Precip Events Conditions
12:51 AM 23.0 °F 13.1 °F 19.4 °F 86% 30.10 in 10.0 mi NNE 9.2 mph - N/A   Overcast
12:55 AM 22.5 °F 13.2 °F 19.8 °F 89% 30.10 in 10.0 mi NNE 8.1 mph - N/A   Overcast
1:55 AM 21.6 °F 12.1 °F 17.6 °F 85% 30.11 in 10.0 mi NNE 8.1 mph - N/A   Overcast
2:54 AM 21.2 °F 13.6 °F 17.6 °F 86% 30.13 in 10.0 mi Variable 5.8 mph - N/A   Mostly Cloudy
2:55 AM 20.7 °F 11.0 °F 16.9 °F 85% 30.13 in 10.0 mi NNE 8.1 mph - N/A   Mostly Cloudy
3:15 AM 21.2 °F 12.6 °F 15.8 °F 80% 30.12 in 10.0 mi NE 6.9 mph - N/A   Scattered Clouds
3:55 AM 19.9 °F 9.3 °F 14.9 °F 81% 30.11 in 10.0 mi NE 9.2 mph - N/A   Partly Cloudy
4:55 AM 19.4 °F 9.5 °F 14.9 °F 83% 30.13 in 10.0 mi NNE 8.1 mph - N/A   Mostly Cloudy
5:10 AM 19.4 °F 10.4 °F 15.8 °F 86% 30.14 in 10.0 mi NNE 6.9 mph - N/A   Overcast
5:17 AM 19.4 °F 10.4 °F 15.8 °F 86% 30.13 in 10.0 mi NNE 6.9 mph - N/A   Overcast
5:55 AM 20.1 °F 9.5 °F 16.0 °F 84% 30.10 in 10.0 mi NNE 9.2 mph - N/A   Overcast
6:16 AM 19.4 °F 9.5 °F 15.8 °F 86% 30.11 in 10.0 mi NNE 8.1 mph - N/A   Scattered Clouds
6:55 AM 19.2 °F 8.4 °F 16.0 °F 87% 30.12 in 10.0 mi NNE 9.2 mph - N/A   Scattered Clouds
6:59 AM 19.4 °F 8.6 °F 15.8 °F 86% 30.12 in 10.0 mi NNE 9.2 mph - N/A   Mostly Cloudy
7:55 AM 20.8 °F 13.2 °F 17.4 °F 87% 30.19 in 10.0 mi NNE 5.8 mph - N/A   Overcast
8:55 AM 22.3 °F 11.5 °F 18.7 °F 86% 30.20 in 10.0 mi NNE 10.4 mph - N/A   Overcast
9:55 AM 23.9 °F 12.9 °F 19.8 °F 84% 30.19 in 10.0 mi NNE 11.5 mph - N/A   Overcast
9:56 AM 24.8 °F 14.0 °F 19.4 °F 80% 30.19 in 10.0 mi NNE 11.5 mph - N/A   Overcast
10:55 AM 25.5 °F 14.9 °F 20.3 °F 81% 30.13 in 10.0 mi NNE 11.5 mph 18.4 mph N/A   Scattered Clouds
11:14 AM 26.6 °F 16.2 °F 21.2 °F 80% 30.13 in 10.0 mi NNE 11.5 mph - N/A   Mostly Cloudy
11:55 AM 28.2 °F 17.2 °F 21.4 °F 76% 30.12 in 10.0 mi NE 13.8 mph 19.6 mph N/A   Overcast
12:03 PM 28.4 °F 17.5 °F 21.2 °F 74% 30.11 in 10.0 mi NE 13.8 mph 19.6 mph N/A   Overcast
12:29 PM 28.4 °F 17.5 °F 21.2 °F 74% 30.06 in 10.0 mi NE 13.8 mph 24.2 mph N/A   Overcast
12:55 PM 29.3 °F 18.6 °F 22.8 °F 77% 30.04 in 10.0 mi NNE 13.8 mph - N/A   Overcast
1:55 PM 29.7 °F 20.1 °F 23.5 °F 78% 30.06 in 10.0 mi NE 11.5 mph 19.6 mph N/A   Overcast
2:55 PM 29.8 °F 20.9 °F 23.5 °F 77% 30.07 in 10.0 mi NNE 10.4 mph - N/A   Overcast
3:10 PM 30.2 °F 20.8 °F 23.0 °F 75% 30.08 in 10.0 mi NNE 11.5 mph - N/A   Overcast
3:27 PM 30.2 °F 21.9 °F 23.0 °F 75% 30.08 in 10.0 mi NNE 9.2 mph - N/A   Overcast
3:46 PM 30.2 °F 21.9 °F 23.0 °F 75% 30.09 in 10.0 mi NNE 9.2 mph - N/A   Overcast
3:55 PM 30.2 °F 22.6 °F 23.5 °F 76% 30.10 in 10.0 mi NNE 8.1 mph - N/A   Overcast
4:55 PM 29.5 °F 17.6 °F 22.6 °F 76% 30.08 in 10.0 mi NNE 17.3 mph 24.2 mph N/A   Overcast
5:25 PM 28.4 °F 17.5 °F 23.0 °F 80% 30.06 in 10.0 mi North 13.8 mph 20.7 mph N/A   Overcast
5:55 PM 28.4 °F 17.5 °F 22.5 °F 78% 30.05 in 10.0 mi North 13.8 mph 23.0 mph N/A   Overcast
6:55 PM 27.9 °F 16.3 °F 22.5 °F 80% 30.06 in 10.0 mi North 15.0 mph 21.9 mph N/A   Overcast
7:55 PM 26.8 °F 14.5 °F 21.7 °F 81% 30.06 in 10.0 mi North 16.1 mph 23.0 mph N/A   Overcast
8:55 PM 26.2 °F 15.2 °F 21.2 °F 81% 30.06 in 10.0 mi North 12.7 mph 21.9 mph N/A   Overcast
9:51 PM 24.8 °F 11.1 °F 21.2 °F 86% 30.06 in 10.0 mi North 18.4 mph 27.6 mph N/A   Overcast
9:55 PM 25.0 °F 13.1 °F 20.7 °F 84% 30.05 in 10.0 mi North 13.8 mph 27.6 mph N/A   Overcast
10:55 PM 24.6 °F 12.2 °F 20.1 °F 83% 30.05 in 10.0 mi North 15.0 mph 21.9 mph N/A   Overcast
11:55 PM 23.9 °F 9.9 °F 19.8 °F 84% 30.02 in 10.0 mi North 18.4 mph 28.8 mph N/A   Overcast